• In Hungary
  • List of Countries
  • For 7 days
  • Water Temperature
  • Satellite Maps
  • Weather Map
  • News
  • Weather Widgets
  • user-avatar
    Login

    Hourly Weather Roztoka

    Today, 26 September, Wednesday

    Time Temperature Precipitation Wind Pressure Humidity
    00:00 +5°C° 0 mm 4 mps 754 mmHg 71%
    01:00 +5°C° 0 mm 4 mps 754 mmHg 75%
    02:00 +5°C° 0 mm 4 mps 754 mmHg 75%
    03:00 +5°C° 0 mm 5 mps 754 mmHg 76%
    04:00 +5°C° 0 mm 5 mps 753 mmHg 76%
    05:00 +4°C° 0 mm 6 mps 753 mmHg 73%
    06:00 +5°C° 0 mm 6 mps 753 mmHg 70%
    07:00 +5°C° 0 mm 7 mps 752 mmHg 67%
    08:00 +6°C° 0 mm 8 mps 752 mmHg 65%
    09:00 +7°C° 0 mm 8 mps 752 mmHg 62%
    10:00 +10°C° 0 mm 9 mps 751 mmHg 60%
    11:00 +8°C° 0.5 mm 9 mps 751 mmHg 64%
    12:00 +8°C° 0.5 mm 9 mps 750 mmHg 67%
    13:00 +7°C° 0.5 mm 9 mps 749 mmHg 71%
    14:00 +7°C° 0.5 mm 9 mps 748 mmHg 68%
    15:00 +8°C° 0.5 mm 9 mps 748 mmHg 65%
    16:00 +9°C° 0.5 mm 8 mps 747 mmHg 62%
    17:00 +8°C° 0.1 mm 9 mps 747 mmHg 62%
    18:00 +10°C° 0.1 mm 9 mps 746 mmHg 62%
    19:00 +10°C° 0.1 mm 9 mps 746 mmHg 61%
    20:00 +11°C° 0.1 mm 9 mps 745 mmHg 66%
    21:00 +11°C° 0.1 mm 9 mps 745 mmHg 70%
    22:00 +11°C° 0.1 mm 9 mps 745 mmHg 74%
    23:00 +12°C° 0.1 mm 9 mps 745 mmHg 77%

    Tomorrow, 27 September, Thursday

    Time Temperature Precipitation Wind Pressure Humidity
    00:00 +12°C° 0.1 mm 9 mps 745 mmHg 81%
    01:00 +13°C° 0.1 mm 8 mps 745 mmHg 85%
    02:00 +13°C° 0.2 mm 8 mps 745 mmHg 86%
    03:00 +13°C° 0.2 mm 8 mps 745 mmHg 87%
    04:00 +14°C° 0.2 mm 7 mps 745 mmHg 88%
    05:00 +14°C° 0.1 mm 7 mps 745 mmHg 87%
    06:00 +14°C° 0.1 mm 7 mps 745 mmHg 86%
    07:00 +14°C° 0.1 mm 6 mps 746 mmHg 85%
    08:00 +14°C° 0 mm 6 mps 746 mmHg 83%
    09:00 +14°C° 0 mm 7 mps 746 mmHg 80%
    10:00 +14°C° 0 mm 7 mps 747 mmHg 78%
    11:00 +15°C° 0.1 mm 7 mps 747 mmHg 77%
    12:00 +16°C° 0.1 mm 7 mps 747 mmHg 77%
    13:00 +16°C° 0.1 mm 7 mps 747 mmHg 76%
    14:00 +16°C° 0 mm 6 mps 746 mmHg 76%
    15:00 +16°C° 0 mm 6 mps 746 mmHg 77%
    16:00 +16°C° 0 mm 6 mps 745 mmHg 78%
    17:00 +16°C° 0 mm 6 mps 745 mmHg 79%
    18:00 +15°C° 0 mm 6 mps 744 mmHg 80%
    19:00 +15°C° 0 mm 6 mps 744 mmHg 82%
    20:00 +15°C° 0.1 mm 6 mps 743 mmHg 83%
    21:00 +15°C° 0.1 mm 6 mps 743 mmHg 83%
    22:00 +15°C° 0.1 mm 6 mps 742 mmHg 84%
    23:00 +15°C° 0.1 mm 7 mps 741 mmHg 83%

    Day after tomorrow, 28 September, Friday

    Time Temperature Precipitation Wind Pressure Humidity
    00:00 +15°C° 0.1 mm 7 mps 740 mmHg 82%
    01:00 +15°C° 0.1 mm 8 mps 739 mmHg 80%
    02:00 +15°C° 0.2 mm 8 mps 739 mmHg 81%
    03:00 +13°C° 0.2 mm 8 mps 739 mmHg 81%
    04:00 +14°C° 0.2 mm 7 mps 739 mmHg 82%
    05:00 +12°C° 0.1 mm 7 mps 739 mmHg 78%
    06:00 +11°C° 0.1 mm 7 mps 740 mmHg 74%
    07:00 +10°C° 0.1 mm 7 mps 740 mmHg 70%
    08:00 +10°C° 0 mm 7 mps 741 mmHg 66%
    09:00 +11°C° 0 mm 7 mps 741 mmHg 62%
    10:00 +11°C° 0 mm 6 mps 742 mmHg 59%
    11:00 +11°C° 0 mm 6 mps 742 mmHg 58%
    12:00 +11°C° 0 mm 6 mps 742 mmHg 58%
    13:00 +12°C° 0 mm 5 mps 743 mmHg 58%
    14:00 +12°C° 0.1 mm 5 mps 743 mmHg 59%
    15:00 +12°C° 0.1 mm 5 mps 743 mmHg 60%
    16:00 +12°C° 0.1 mm 5 mps 743 mmHg 61%
    17:00 +10°C° 0 mm 4 mps 744 mmHg 64%
    18:00 +9°C° 0 mm 3 mps 744 mmHg 68%
    19:00 +8°C° 0 mm 3 mps 744 mmHg 71%
    20:00 +8°C° 0 mm 2 mps 745 mmHg 70%
    21:00 +8°C° 0 mm 2 mps 745 mmHg 69%
    22:00 +7°C° 0 mm 2 mps 745 mmHg 68%
    23:00 +7°C° 0 mm 2 mps 746 mmHg 67%

    29 September, Saturday

    Time Temperature Precipitation Wind Pressure Humidity
    00:00 +7°C° 0 mm 2 mps 746 mmHg 67%
    01:00 +7°C° 0 mm 3 mps 746 mmHg 66%
    02:00 +7°C° 0 mm 3 mps 746 mmHg 65%
    03:00 +5°C° 0 mm 3 mps 747 mmHg 64%
    04:00 +5°C° 0 mm 3 mps 747 mmHg 63%
    05:00 +7°C° 0 mm 3 mps 748 mmHg 62%
    06:00 +7°C° 0 mm 2 mps 748 mmHg 61%
    07:00 +7°C° 0 mm 2 mps 748 mmHg 60%
    08:00 +8°C° 0 mm 2 mps 749 mmHg 53%
    09:00 +10°C° 0 mm 2 mps 749 mmHg 46%
    10:00 +11°C° 0 mm 3 mps 750 mmHg 38%
    11:00 +13°C° 0 mm 2 mps 750 mmHg 36%
    12:00 +13°C° 0 mm 2 mps 750 mmHg 34%
    13:00 +14°C° 0 mm 2 mps 750 mmHg 31%
    14:00 +13°C° 0 mm 2 mps 750 mmHg 33%
    15:00 +13°C° 0 mm 2 mps 750 mmHg 34%
    16:00 +13°C° 0 mm 2 mps 750 mmHg 36%
    17:00 +12°C° 0 mm 2 mps 750 mmHg 42%
    18:00 +9°C° 0 mm 2 mps 750 mmHg 47%
    19:00 +8°C° 0 mm 2 mps 750 mmHg 53%
    20:00 +7°C° 0 mm 2 mps 750 mmHg 56%
    21:00 +7°C° 0 mm 2 mps 750 mmHg 59%
    22:00 +7°C° 0 mm 3 mps 750 mmHg 62%
    23:00 +7°C° 0 mm 3 mps 750 mmHg 63%

    30 September, Sunday

    Time Temperature Precipitation Wind Pressure Humidity
    00:00 +5°C° 0 mm 3 mps 750 mmHg 64%
    01:00 +5°C° 0 mm 3 mps 750 mmHg 65%
    02:00 +5°C° 0 mm 3 mps 749 mmHg 66%
    03:00 +5°C° 0 mm 4 mps 749 mmHg 67%
    04:00 +5°C° 0 mm 4 mps 749 mmHg 68%
    05:00 +5°C° 0 mm 4 mps 749 mmHg 67%
    06:00 +5°C° 0 mm 4 mps 748 mmHg 67%
    07:00 +5°C° 0 mm 4 mps 748 mmHg 66%
    08:00 +7°C° 0 mm 5 mps 748 mmHg 60%
    09:00 +9°C° 0 mm 5 mps 748 mmHg 54%
    10:00 +12°C° 0 mm 5 mps 748 mmHg 48%
    11:00 +12°C° 0 mm 5 mps 748 mmHg 46%
    12:00 +13°C° 0 mm 5 mps 748 mmHg 44%
    13:00 +14°C° 0 mm 5 mps 747 mmHg 41%
    14:00 +13°C° 0 mm 5 mps 747 mmHg 43%
    15:00 +13°C° 0 mm 4 mps 746 mmHg 44%
    16:00 +13°C° 0 mm 4 mps 745 mmHg 46%
    17:00 +12°C° 0 mm 3 mps 745 mmHg 51%
    18:00 +10°C° 0 mm 3 mps 745 mmHg 56%
    19:00 +9°C° 0 mm 3 mps 745 mmHg 60%
    20:00 +8°C° 0 mm 3 mps 745 mmHg 61%
    21:00 +8°C° 0 mm 3 mps 744 mmHg 62%
    22:00 +7°C° 0 mm 3 mps 744 mmHg 62%
    23:00 +7°C° 0 mm 3 mps 744 mmHg 62%

    1 October, Monday

    Time Temperature Precipitation Wind Pressure Humidity
    00:00 +7°C° 0 mm 3 mps 743 mmHg 62%
    01:00 +5°C° 0 mm 3 mps 743 mmHg 61%
    02:00 +5°C° 0 mm 3 mps 742 mmHg 62%
    03:00 +5°C° 0 mm 3 mps 742 mmHg 62%
    04:00 +4°C° 0 mm 3 mps 741 mmHg 63%
    05:00 +4°C° 0 mm 3 mps 741 mmHg 63%
    06:00 +5°C° 0 mm 3 mps 741 mmHg 63%
    07:00 +5°C° 0 mm 3 mps 740 mmHg 63%
    08:00 +8°C° 0 mm 3 mps 740 mmHg 58%
    09:00 +10°C° 0 mm 2 mps 740 mmHg 52%
    10:00 +12°C° 0 mm 2 mps 740 mmHg 46%
    11:00 +13°C° 0 mm 2 mps 740 mmHg 44%
    12:00 +14°C° 0 mm 2 mps 739 mmHg 41%
    13:00 +15°C° 0 mm 2 mps 739 mmHg 38%
    14:00 +15°C° 0 mm 2 mps 739 mmHg 40%
    15:00 +15°C° 0 mm 2 mps 738 mmHg 42%
    16:00 +14°C° 0 mm 1 mps 738 mmHg 44%
    17:00 +13°C° 0 mm 1 mps 738 mmHg 49%
    18:00 +11°C° 0 mm 1 mps 738 mmHg 54%
    19:00 +10°C° 0 mm 1 mps 738 mmHg 59%
    20:00 +9°C° 0 mm 1 mps 738 mmHg 63%
    21:00 +8°C° 0 mm 2 mps 738 mmHg 67%
    22:00 +7°C° 0 mm 2 mps 739 mmHg 71%
    23:00 +7°C° 0 mm 2 mps 739 mmHg 76%
    Show more